1998-067HX

Last updated on May 19, 2016, 7:36 a.m. UTC

1 41477U 98067HX  16140.16747728  .00023634  00000-0  34620-3 0  9993
2 41477  51.6425 202.7836 0003014  15.8698  90.6695 15.55441423   325

Satellite is not in orbit.